Location: Bismarck
(46.7731°N, 100.8200°W)
Time: 22:36:16
(UTC-06:00)

ISS - Pass Details

Date: 29 November 2017
Orbit: 403 x 407 km, 51.6° (Epoch: 12 December)

Event Time Altitude Azimuth Distance (km) Brightness Sun altitude
Rises 01:22:15 0° 289° (WNW) 2,326 - -62.7°
Reaches altitude 10° 01:24:39 10° 272° (W) 1,461 - -62.6°
Maximum altitude 01:27:10 21° 222° (SW) 983 - -62.4°
Drops below altitude 10° 01:29:40 10° 171° (S) 1,452 - -62.1°
Sets 01:32:04 0° 155° (SSE) 2,306 - -61.9°
